Temp
9 9 9 9 9 9 9 10 9 9 10 11 11 11 10 9 9 8 7 7 7 7 6 6 6 6 6 7 7 7 7 7 7 7 7 7 7 7
9 9 9 9 9 9 9 9 9 9 9 10 10 10 10 10 9 8 8 7 6 6 6 6 5 5 5 6 6 6 6 6 6 6 6 6 6 6
9 9 9 9 9 8 8 8 9 9 9 9 9 9 10 10 9 8 8 7 6 5 5 6 5 5 5 5 6 6 6 6 6 6 6 6 5 5
9 9 9 9 8 9 8 8 8 8 8 9 9 9 9 9 9 9 8 7 6 5 5 5 5 5 4 5 5 5 5 5 5 5 5 5 5 5
9 9 9 9 9 9 9 9 9 8 8 9 9 9 8 9 9 8 8 8 7 6 5 5 4 5 5 4 4 5 5 5 5 5 5 4 4 4
9 9 9 9 9 9 9 9 9 8 8 8 8 8 8 8 8 8 8 7 7 7 6 5 5 4 4 4 5 5 5 5 4 4 4 4 4 4
8 8 9 9 9 9 8 9 9 9 8 8 8 8 8 9 9 8 8 8 7 6 6 6 5 5 4 4 4 4 4 4 4 4 4 3 3 3
8 8 8 8 8 8 7 8 8 8 8 8 8 8 9 8 9 8 7 7 6 6 6 6 5 5 4 3 3 4 4 3 3 3 3 3 3 3
8 8 8 8 8 8 7 7 7 7 7 8 7 7 7 8 8 7 6 6 5 6 6 5 5 5 4 3 2 2 3 3 3 3 3 2 2 2
8 8 8 8 8 8 7 7 6 6 6 6 7 7 7 6 7 6 6 5 4 4 4 4 4 4 3 3 2 2 2 2 2 2 2 2 2 2
7 7 7 7 7 7 7 7 7 6 6 6 6 5 5 5 5 5 5 4 3 4 3 3 4 3 2 2 1 1 1 1 2 2 1 1 1 1
7 7 7 8 7 7 7 7 6 7 7 6 5 5 4 5 4 4 4 4 3 3 3 2 2 1 1 1 1 0 0 1 1 1 1 1 0 0
7 7 7 7 7 6 7 7 7 7 6 5 5 5 4 4 4 4 4 4 3 3 3 2 1 0 -0 -0 -0 -0 -1 1 0 1 0 -0 -0 -1
7 6 7 6 6 6 6 6 6 6 6 5 5 4 4 4 4 4 3 3 3 2 2 1 1 0 -0 -0 -1 -1 -1 -1 -0 0 -0 -0 -1 -1
6 6 6 6 6 6 6 6 5 5 5 5 5 4 3 3 3 3 3 3 3 2 1 0 -0 -0 -0 -0 -1 -1 -1 -2 -1 -1 -1 -1 -1 -1
5 5 5 5 5 5 5 4 4 4 4 4 3 3 3 3 2 2 2 2 2 2 1 0 0 0 0 -0 -1 -1 -1 -2 -1 -2 -3 -3 -3 -3
4 4 4 4 4 3 3 3 3 3 3 2 2 2 2 2 2 2 2 1 2 1 1 1 0 -0 -1 -1 -1 -1 -1 -2 -2 -4 -4 -3 -2 -2
3 2 2 2 2 2 2 2 2 1 1 2 2 2 1 1 1 1 1 1 1 1 1 0 -0 -1 -1 -2 -1 -2 -2 -2 -3 -4 -4 -3 -2 -2
1 1 1 1 1 1 1 1 1 0 0 0 0 0 0 0 0 0 0 -0 -0 -0 -1 -1 -1 -2 -2 -2 -2 -2 -2 -3 -3 -3 -3 -4 -3 -3
0 0 0 0 -0 -0 -0 -0 0 0 0 0 0 0 0 -0 -1 -1 -1 -1 -1 -2 -2 -2 -2 -2 -2 -2 -2 -2 -3 -3 -4 -3 -4 -4 -3 -3
-1 -1 -1 -1 -1 -1 -2 -1 -1 -1 -1 -1 -1 -1 -1 -2 -2 -2 -3 -3 -2 -3 -3 -3 -2 -3 -3 -4 -3 -2 -3 -4 -3 -4 -4 -4 -4 -4
-3 -3 -3 -3 -2 -2 -3 -3 -2 -3 -2 -2 -2 -3 -2 -2 -2 -3 -3 -3 -3 -3 -3 -3 -3 -3 -3 -4 -3 -3 -3 -4 -5 -4 -4 -4 -5 -5
-5 -5 -6 -5 -5 -5 -5 -5 -5 -4 -4 -4 -4 -4 -4 -4 -3 -3 -4 -4 -4 -4 -4 -4 -4 -4 -4 -4 -4 -4 -4 -5 -6 -6 -6 -5 -6 -6
Height
1536 1539 1544 1548 1552 1556 1559 1561 1561 1562 1562 1564 1565 1566 1568 1569 1571 1572 1574 1576 1577 1578 1579 1581 1583 1584 1585 1585 1585 1586 1587 1588 1588 1588 1589 1589 1589 1588
1530 1534 1539 1543 1547 1551 1554 1556 1557 1559 1560 1561 1563 1564 1564 1565 1567 1569 1571 1573 1574 1575 1575 1578 1580 1581 1581 1582 1583 1585 1586 1586 1586 1587 1587 1588 1588 1587
1525 1529 1534 1538 1542 1545 1548 1550 1552 1554 1555 1557 1560 1561 1561 1562 1563 1564 1566 1568 1570 1572 1572 1573 1576 1577 1578 1578 1579 1581 1582 1583 1584 1584 1585 1586 1587 1588
1519 1523 1527 1533 1536 1539 1542 1544 1546 1549 1551 1551 1554 1556 1557 1557 1559 1559 1560 1562 1565 1567 1568 1569 1571 1573 1574 1574 1575 1576 1578 1579 1581 1582 1582 1584 1585 1586
1514 1519 1522 1526 1529 1532 1535 1537 1539 1543 1545 1545 1548 1550 1551 1552 1553 1555 1555 1555 1558 1561 1562 1564 1566 1568 1568 1569 1572 1573 1574 1575 1576 1578 1579 1581 1582 1583
1509 1514 1517 1519 1523 1526 1528 1530 1532 1535 1538 1540 1540 1542 1544 1545 1547 1548 1549 1551 1552 1555 1555 1557 1560 1562 1563 1565 1566 1568 1569 1570 1571 1574 1576 1578 1578 1579
1502 1507 1510 1513 1517 1519 1521 1524 1526 1528 1530 1532 1533 1535 1536 1536 1537 1542 1544 1545 1547 1549 1549 1549 1552 1555 1557 1559 1560 1562 1564 1565 1566 1567 1570 1572 1573 1574
1497 1501 1504 1507 1508 1511 1514 1516 1519 1520 1521 1523 1525 1526 1527 1530 1531 1533 1536 1538 1538 1541 1543 1543 1544 1547 1551 1553 1555 1557 1558 1559 1561 1563 1566 1567 1569 1569
1491 1495 1499 1501 1502 1503 1506 1508 1509 1512 1513 1516 1515 1518 1520 1524 1526 1526 1527 1527 1529 1533 1534 1534 1538 1540 1544 1547 1550 1551 1553 1554 1555 1556 1559 1562 1563 1564
1485 1489 1491 1492 1493 1496 1498 1499 1501 1502 1504 1506 1507 1510 1512 1515 1518 1519 1520 1520 1520 1522 1524 1526 1529 1531 1537 1539 1542 1544 1547 1549 1550 1551 1553 1556 1558 1560
1480 1483 1486 1489 1490 1491 1492 1493 1495 1495 1497 1499 1500 1501 1502 1505 1508 1509 1508 1511 1510 1511 1515 1517 1521 1523 1528 1530 1533 1537 1539 1542 1544 1546 1548 1550 1552 1555
1474 1478 1480 1483 1484 1486 1487 1487 1487 1488 1489 1491 1492 1493 1494 1495 1498 1500 1503 1503 1505 1507 1509 1511 1513 1516 1519 1522 1524 1525 1529 1532 1535 1537 1540 1543 1546 1546
1469 1470 1474 1476 1479 1480 1481 1481 1481 1482 1483 1485 1486 1487 1489 1490 1490 1493 1495 1498 1500 1500 1504 1506 1508 1511 1512 1513 1516 1519 1523 1526 1527 1530 1533 1536 1539 1540
1463 1464 1467 1470 1472 1473 1474 1474 1475 1477 1477 1479 1480 1481 1482 1483 1485 1488 1490 1493 1495 1499 1500 1502 1502 1504 1507 1509 1511 1513 1516 1519 1521 1523 1526 1528 1531 1533
1460 1462 1463 1464 1466 1467 1469 1469 1469 1471 1472 1473 1475 1476 1478 1479 1481 1482 1486 1487 1491 1495 1495 1495 1498 1497 1501 1501 1505 1507 1509 1511 1514 1516 1518 1521 1524 1526
1457 1458 1460 1460 1461 1461 1462 1463 1463 1467 1468 1469 1470 1471 1473 1474 1478 1479 1480 1485 1488 1491 1490 1493 1492 1495 1494 1496 1500 1502 1504 1504 1504 1507 1510 1510 1514 1516
1455 1456 1456 1455 1457 1457 1459 1461 1461 1464 1466 1466 1466 1468 1469 1471 1473 1474 1477 1479 1484 1486 1489 1490 1489 1490 1491 1493 1495 1497 1498 1498 1500 1501 1504 1505 1507 1510
1453 1453 1455 1456 1456 1456 1457 1458 1460 1462 1464 1464 1463 1465 1466 1468 1470 1473 1474 1476 1478 1480 1482 1485 1485 1486 1487 1488 1490 1491 1492 1493 1495 1496 1498 1499 1501 1504
1454 1453 1454 1454 1455 1456 1456 1457 1459 1460 1463 1463 1463 1462 1464 1466 1467 1471 1472 1473 1475 1475 1477 1480 1482 1482 1481 1482 1484 1485 1486 1488 1490 1491 1493 1493 1495 1498
1454 1454 1454 1455 1455 1456 1457 1457 1459 1460 1461 1462 1462 1462 1463 1464 1466 1468 1470 1470 1471 1472 1473 1475 1476 1476 1476 1477 1477 1480 1480 1482 1484 1485 1486 1488 1489 1490
1452 1453 1454 1455 1454 1455 1457 1458 1459 1459 1460 1460 1461 1460 1461 1463 1464 1465 1466 1467 1467 1468 1469 1470 1471 1472 1471 1472 1472 1473 1476 1477 1478 1479 1480 1480 1481 1482
1452 1453 1455 1454 1454 1455 1456 1457 1458 1459 1459 1459 1460 1460 1461 1462 1461 1461 1462 1462 1462 1463 1464 1465 1466 1466 1466 1466 1467 1468 1469 1470 1472 1472 1473 1474 1474 1474
1450 1452 1452 1453 1454 1455 1456 1456 1456 1457 1456 1457 1458 1458 1458 1459 1459 1458 1458 1458 1459 1459 1460 1460 1461 1460 1460 1461 1461 1462 1462 1463 1463 1464 1465 1466 1467 1469
Wind_Speed
39 35 34 34 33 30 27 19 12 9 8 8 11 11 14 17 17 18 16 16 16 17 16 16 11 10 11 11 8 7 7 6 7 6 5 4 2 1
40 36 34 33 33 32 29 26 23 20 17 11 8 9 10 12 17 19 18 18 18 18 19 17 14 13 15 13 12 11 10 10 9 8 7 6 5 3
39 36 35 33 31 31 30 29 27 24 23 21 21 17 14 13 15 18 19 20 20 20 21 19 17 16 16 17 16 15 13 13 12 11 10 9 7 4
37 36 34 33 32 30 30 30 28 26 27 25 23 22 20 17 16 18 19 21 22 21 22 21 19 18 19 19 19 18 17 16 15 14 12 11 8 6
35 34 32 32 30 30 31 30 29 28 28 27 25 24 23 21 19 21 22 23 23 23 24 23 22 21 22 23 20 20 19 18 17 16 15 13 11 10
32 31 31 30 29 28 29 28 28 29 29 29 29 28 27 25 24 25 25 26 24 25 27 26 23 25 24 24 23 22 22 21 20 18 17 16 14 13
29 29 28 28 27 27 28 28 29 29 31 32 32 33 33 32 31 28 26 25 26 27 29 28 27 26 26 25 26 24 24 23 22 22 21 20 19 16
28 29 29 28 26 27 30 30 30 31 31 32 33 37 36 35 32 31 29 28 30 30 31 31 30 29 27 26 27 26 25 25 24 23 23 23 21 20
22 21 24 23 22 21 23 27 28 29 31 32 34 36 35 35 34 35 33 33 32 29 28 30 31 30 28 27 27 28 26 26 26 25 25 25 24 23
23 22 24 20 21 23 20 21 24 27 30 33 36 34 32 31 32 32 36 34 33 32 34 33 27 26 25 26 27 29 28 27 27 28 27 27 26 25
28 24 22 20 19 18 19 19 22 24 24 26 28 29 29 32 33 34 34 34 36 36 34 31 29 27 25 24 23 26 29 29 29 29 29 28 27 26
25 21 19 20 19 18 19 18 20 19 19 19 20 22 25 27 29 31 30 30 33 32 34 32 34 30 29 32 31 28 30 31 31 31 30 29 29 29
22 22 22 22 22 20 21 22 22 20 18 17 17 17 19 21 22 25 28 27 30 32 29 25 29 29 30 23 14 21 28 31 32 32 31 30 29 30
17 18 18 19 21 24 24 25 23 19 19 18 18 17 17 17 19 22 24 26 26 24 20 23 26 22 23 26 26 23 22 23 29 34 33 31 30 29
14 16 17 18 19 20 20 20 18 21 20 18 15 14 13 11 11 15 21 24 22 22 22 22 22 20 20 20 22 25 26 26 27 27 30 31 30 32
8 9 10 10 11 12 13 13 14 16 15 13 11 11 10 10 14 16 16 20 22 24 21 22 21 20 22 24 26 26 24 24 24 27 31 30 28 29
6 6 6 5 7 5 6 7 8 8 8 9 8 8 9 9 10 11 15 22 25 15 19 22 23 26 26 25 26 24 27 28 26 21 22 21 26 26
1 2 3 3 3 3 3 3 3 4 4 5 6 7 6 5 7 8 11 16 22 23 23 24 24 24 23 24 26 27 26 24 23 22 20 23 22 22
4 7 6 6 6 5 3 4 5 5 6 5 6 6 8 8 8 8 12 14 18 20 20 17 19 23 26 25 25 20 21 22 21 23 22 22 24 21
7 7 6 5 4 3 3 1 0 3 5 6 5 5 5 7 5 7 11 14 14 16 19 20 22 22 23 24 24 22 19 17 22 26 24 21 21 24
7 5 4 2 1 2 3 3 3 4 3 4 5 6 7 8 9 10 11 12 14 15 17 18 17 17 19 21 23 21 21 19 19 22 22 22 23 25
4 2 2 2 4 4 5 7 8 6 6 6 7 9 10 11 11 11 11 12 14 16 17 18 17 18 20 21 22 22 22 21 20 22 22 23 23 22
3 3 3 3 3 3 3 5 5 6 6 7 8 9 10 10 11 12 13 15 16 17 18 18 17 18 20 20 20 20 20 20 22 26 27 25 24 24
Wind_Direction
227 230 232 236 239 244 249 257 262 279 289 282 265 256 245 239 239 242 240 240 243 249 254 257 266 253 244 246 247 245 245 237 227 219 217 221 225 230
231 232 234 236 239 244 248 253 257 261 262 268 285 291 266 250 238 241 243 243 242 246 252 257 255 249 247 250 250 249 246 240 232 225 222 219 219 218
232 234 236 238 239 243 247 251 254 256 258 260 271 274 268 262 251 247 245 245 245 249 252 254 251 252 251 252 246 243 241 239 233 227 225 223 220 227
232 234 236 238 239 241 246 250 253 255 259 263 266 266 265 262 258 250 246 247 249 251 254 254 253 253 255 252 246 241 239 239 236 231 228 226 224 222
235 236 237 239 240 242 244 247 251 254 257 261 263 262 262 260 257 256 250 247 247 249 251 252 253 250 251 253 248 243 240 239 237 234 232 228 225 224
238 239 241 242 243 245 247 249 251 253 254 256 258 259 259 260 258 254 253 254 251 251 251 254 253 251 249 253 252 243 239 238 235 234 232 229 227 226
236 239 242 244 246 249 250 250 252 254 254 253 254 255 256 255 258 261 260 262 258 254 253 255 256 257 255 249 250 245 240 237 235 232 231 229 228 228
239 239 241 244 245 250 249 249 249 251 253 255 255 254 257 258 262 262 262 259 250 256 256 258 255 255 254 251 251 251 244 238 237 235 234 232 231 231
230 233 241 248 257 263 258 247 249 252 253 254 254 255 259 261 263 261 256 257 257 263 262 259 256 258 256 253 250 251 245 241 238 237 236 236 234 234
223 230 246 260 261 260 257 258 259 260 258 256 256 261 263 265 266 264 266 262 252 251 250 252 253 256 258 255 251 250 249 245 240 239 240 240 239 238
227 229 240 255 258 259 261 265 269 265 262 262 264 263 265 267 266 266 259 249 244 245 244 245 251 251 250 247 248 254 254 248 245 243 243 244 243 242
224 238 248 253 249 262 266 268 270 271 274 272 271 268 265 263 262 264 261 253 247 245 244 240 245 243 245 245 246 245 248 248 244 243 244 245 246 244
239 246 253 253 251 260 267 264 267 277 275 268 268 265 262 262 259 255 256 253 252 253 254 251 251 248 250 248 237 242 246 250 248 247 245 244 246 248
247 252 258 258 254 256 265 265 257 253 258 266 267 267 267 267 269 265 259 254 249 250 255 261 266 262 261 256 250 250 247 250 249 247 246 248 249 250
237 245 251 259 264 265 265 260 249 251 251 252 260 269 269 266 261 258 260 250 245 249 262 262 256 253 252 248 252 254 254 249 245 247 248 248 249 251
247 262 269 270 271 274 273 256 254 253 245 246 255 253 246 245 248 244 248 248 238 243 255 255 249 249 254 254 254 255 260 247 251 241 245 242 245 251
248 245 259 275 275 270 263 247 229 234 241 240 240 236 233 239 245 251 247 240 231 250 256 255 256 254 255 258 259 263 265 262 258 239 240 250 252 250
212 164 154 147 159 170 190 191 203 209 214 218 231 230 228 236 253 259 258 251 249 254 257 258 261 259 254 259 266 268 263 259 250 243 239 242 247 260
133 112 106 103 103 112 134 167 184 199 229 235 224 228 227 236 249 259 262 264 263 263 261 254 263 266 266 264 262 268 261 258 248 237 237 250 266 260
129 120 110 108 101 93 92 85 230 235 239 245 246 248 237 209 251 271 274 273 270 269 267 267 266 265 259 262 271 270 264 255 247 242 254 257 260 259
114 109 105 101 41 21 5 340 318 314 296 267 250 236 251 264 269 275 274 267 267 267 270 270 273 271 266 264 261 263 252 249 252 250 250 255 255 246
154 171 219 259 268 276 287 290 283 286 283 283 278 273 269 268 265 265 268 268 271 273 272 273 270 269 266 264 266 266 264 257 249 251 254 255 248 250
158 186 208 230 241 259 273 283 284 282 277 275 278 280 279 274 273 272 273 272 274 272 274 272 265 263 264 265 266 262 261 259 250 250 251 250 254 264